Home   Weather   Konya   Past weeks

Flag for Turkey Past Weather in Konya, Turkey — Yesterday and Last 2 Weeks

Now
32 °F

Broken clouds.


Feels Like: 23 °F
Forecast: 14 / 28 °F
Wind: 12 mph from North

Location: Konya Airport

Current Time: Jan 21, 2017 at 11:59:36 am

Latest Report: Jan 21, 2017 at 10:50 am


Visibility: N/A

Pressure: 30.24 "Hg (26.55 "Hg at 1041m altitude)

Humidity: 80%

Dew Point: 27 °F

Location of KonyaLocation

Past Weather in Konya — Graph

°F

Konya Temperature Yesterday

Maximum temperature yesterday: 34 °F (at 8:50 pm)
Minimum temperature yesterday: 23 °F (at 12:50 am)
Average temperature yesterday: 29 °F

High & Low Weather Summary for the Past Weeks

 TemperatureHumidityPressure
High41 °F (Jan 6, 12:50 pm)100% (Jan 10, 7:50 pm)30.30 "Hg (Jan 10, 7:50 pm)
Low5 °F (Jan 14, 12:50 am)51% (Jan 13, 3:50 am)29.59 "Hg (Jan 8, 1:20 pm)
Average27 °F88%30.01 "Hg
* Reported Jan 6 10:50 am — Jan 21 10:04 am, Konya, Weather by CustomWeather, © 2017

Note: Actual official high and low records may vary slightly from our data, if they occured in-between our weather recording intervals... More about our weather records

Advertising

Konya Weather History for the Previous 24 Hours

Scroll right to see more
 ConditionsComfort  
Time TempWeatherWind HumidityBarometerVisibility
10:04 am
Sat, Jan 21
32 °FBroken clouds.14 mph87%30.24 "HgN/A
9:50 am32 °FLight snow. Broken clouds.12 mph87%30.21 "HgN/A
8:50 am32 °FLight snow. Broken clouds.12 mph87%30.21 "Hg5 mi
8:21 am32 °FLight snow. Broken clouds.12 mph87%30.21 "HgN/A
7:50 am32 °FPartly cloudy.10 mph87%30.18 "HgN/A
6:50 am32 °FPartly cloudy.16 mph87%30.18 "HgN/A
5:50 am32 °FPartly cloudy.16 mph87%30.18 "HgN/A
4:50 am32 °FPartly cloudy.14 mph93%30.18 "HgN/A
3:50 am34 °FPartly cloudy.9 mph87%30.21 "HgN/A
2:50 am34 °FPartly cloudy.12 mph87%30.21 "HgN/A
1:50 am34 °FPartly cloudy.10 mph87%30.21 "HgN/A
12:50 am34 °FPartly cloudy.10 mph87%30.21 "HgN/A
11:50 pm
Fri, Jan 20
34 °FPartly cloudy.13 mph87%30.21 "HgN/A
10:50 pm34 °FLight snow. Mostly cloudy.12 mph87%30.21 "HgN/A
9:50 pm34 °FLight snow. Mostly cloudy.7 mph87%30.21 "HgN/A
9:22 pm34 °FLight snow. Overcast.9 mph87%30.21 "HgN/A
8:50 pm34 °FOvercast.12 mph87%30.21 "HgN/A
7:50 pm32 °FOvercast.10 mph93%30.21 "HgN/A
6:50 pm32 °FLight snow. Overcast.13 mph93%30.21 "Hg5 mi
6:04 pm32 °FLight snow. Mostly cloudy.9 mph93%30.21 "Hg4 mi
5:50 pm32 °FMore clouds than sun.9 mph93%30.21 "Hg4 mi
4:50 pm30 °FMore clouds than sun.13 mph100%30.18 "HgN/A
3:50 pm30 °FBroken clouds.7 mph100%30.18 "Hg4 mi
2:50 pm30 °FIce fog.9 mph100%30.18 "Hg2 mi
1:50 pm30 °FLight snow. Ice fog.3 mph93%30.18 "Hg1 mi
1:04 pm28 °FLight snow. More clouds than sun.3 mph100%30.21 "Hg1 mi
12:50 pm28 °FLight snow. Ice fog.2 mph100%30.21 "Hg2 mi
11:50 am28 °FIce fog.3 mph100%30.24 "Hg1 mi
Weather by CustomWeather, © 2017

See weather overviewHow to use our weather pages